Regional Weather Roundup
Issued by NWS

Home | Current Version | Previous Version | Graphics & Text | Print | Product List | Glossary On
Versions: 1 2 3 4 5 6 7 8 9 10 11 12 13 14 15 16 17 18 19 20 21 22 23 24 25 26 27 28 29 30 31 32 33 34 35 36 37 38 39 40 41 42 43 44 45 46 47 48 49 50
000
ASUS45 KBOU 182307
RWRCO

WEATHER ROUNDUP FOR COLORADO
NATIONAL WEATHER SERVICE DENVER/BOULDER CO
400 PM MST SAT FEB 18 2017

NOTE: "FAIR" INDICATES FEW OR NO CLOUDS BELOW 12000 FEET WITH NO
SIGNIFICANT WEATHER AND/OR OBSTRUCTIONS TO VISIBILITY.

COZ001>005-013-030-031-190000-
...NORTHWEST COLORADO...

CITY           SKY/WX    TMP DP  RH WIND       PRES   REMARKS
CRAIG          LGT RAIN  42  33  70 W9        29.75S
HAYDEN         FAIR      43  30  61 NW12      29.76R
MEEKER         CLOUDY    44  33  65 NW8       29.74F
MOUNT WERNER   NOT AVBL
STEAMBOAT SPGS FAIR      46  29  52 CALM      29.74S
WALDEN           N/A     37  28  70 NW3       29.75S
$$

COZ006>008-011-190000-
...WEST CENTRAL VALLEYS...

CITY           SKY/WX    TMP DP  RH WIND       PRES   REMARKS
GRAND JUNCTION PTSUNNY   50  40  68 W9        29.72F
MONTROSE       PTSUNNY   52  35  52 NW13      29.72R
EAGLE          SUNNY     54  28  37 W7        29.70F
RIFLE          FAIR      51  33  50 W15       29.70S
DELTA          PTSUNNY   56  34  43 W12       29.71R
NUCLA          FAIR      48  34  57 CALM      29.77S
$$

COZ017>023-064>068-190000-
...SOUTHWEST COLORADO...

CITY           SKY/WX    TMP DP  RH WIND       PRES   REMARKS
DURANGO        FAIR      51  29  42 SW8       29.75R
CORTEZ         FAIR      55  30  38 S9G16     29.70F
PAGOSA SPRINGS PTSUNNY   49  22  34 CALM      29.77S
TELLURIDE      FAIR      41  28  58 SW6       29.80S
WOLF CREEK PAS CLOUDY    30  19  64 S15G22    29.94R WCI  19
$$

COZ009-010-012-014-032>034-037-058>063-190000-
...CENTRAL COLORADO...

CITY           SKY/WX    TMP DP  RH WIND       PRES   REMARKS
ASPEN          PTSUNNY   49  28  44 N8        29.71R
BUENA VISTA    FAIR      50  23  35 S18       29.76S
COPPER MTN     NOT AVBL
BERTHOUD PASS  FAIR      28  19  69 S15G25    29.90S WCI  17
COTTONWOOD PAS FAIR      45  23  42 SE12G21   29.82S
GUNNISON       FAIR      36  27  69 E7        29.76S
KREMMLING      FAIR      55  30  38 W6        29.72S
LEADVILLE      FAIR      38  22  52 S10       29.78F
MONARCH PASS   FAIR      34  21  60 SW17G26   30.01R WCI  23
SALIDA         FAIR      55  22  28 S15G25    29.82S
SUNLIGHT       NOT AVBL
WILKERSON PASS FAIR      37  21  52 S3        29.90F
$$

COZ069>075-190000-
...SAN LUIS VALLEY/SANGRE DE CRISTO MOUNTAINS...

CITY           SKY/WX    TMP DP  RH WIND       PRES   REMARKS
ALAMOSA        FAIR      50  31  48 SE3       29.76F
LA VETA PASS   FAIR      41  25  52 MISG      29.87R
SAGUACHE       FAIR      50  30  46 S7        29.78S
$$

COZ035-036-038>040-190000-
...NORTHERN COLORADO FRONT RANGE...

CITY           SKY/WX    TMP DP  RH WIND       PRES   REMARKS
DENVER INTL AP PTSUNNY   65  22  19 S23       29.62F
DMNS CITY PARK   N/A     67  19  16 E13       29.60F
AURORA         PTSUNNY   64  24  21 S20       29.64F
FRONT RANGE AP NOT AVBL
ERIE MUNI ARPT FAIR      65  18  17 NE10      29.62S
BOULDER MUN AP FAIR      61  23  23 N7        29.64R
CENTENNIAL     PTSUNNY   61  22  22 S17       29.64F
BROOMFIELD     PTSUNNY   64  21  19 N9        29.65F
FORT COLLINS   FAIR      60  22  23 E8        29.64F
LONGMONT       FAIR      64  21  19 N7        29.65F
$$

COZ041-046-047-076>085-087-088-190000-
...PIKES PEAK/PALMER DIVIDE AND SOUTHERN FOOTHILLS...

CITY           SKY/WX    TMP DP  RH WIND       PRES   REMARKS
COLO. SPRINGS  PTSUNNY   56  22  26 S15       29.73S
A. F. ACADEMY  FAIR      55  21  27 S16       29.71F
SCHRIEVER AFB  FAIR      56  18  22 SE17G31   29.73F
ELLICOTT       FAIR     N/A N/A N/A S16       29.71F
FALCON         FAIR      54  19  25 S17G23    29.75R
FORT CARSON    FAIR      57  23  26 S7        29.71S
LIMON          FAIR      58  17  20 SE18      29.70F
MONUMENT HILL  FAIR      52  23  32 S18G30    29.74R
TRINIDAD       FAIR      64  19  17 S23G29    29.69R
$$

COZ042>045-048>051-090-091-190000-
...NORTHEAST COLORADO...

CITY           SKY/WX    TMP DP  RH WIND       PRES   REMARKS
GREELEY ARPT   FAIR      59  22  24 E12       29.63F
AKRON          FAIR      63  19  18 S23G29    29.69S
BURLINGTON     FAIR      65  23  20 S16       29.73S
WRAY           NOT AVBL
STERLING       FAIR      64  27  24 S15G21    29.66S
HOLYOKE        FAIR      63  28  27 S14       29.71R
FORT MORGAN    FAIR      63  22  21 SE12      29.65F
$$

COZ086-089-092>099-190000-
...SOUTHEAST COLORADO...

CITY           SKY/WX    TMP DP  RH WIND       PRES   REMARKS
PUEBLO         FAIR      63  24  22 E14       29.65F
LA JUNTA       FAIR      69  20  15 SE24G31   29.63F
LAMAR          FAIR      69  18  14 S14       29.67F
SPRINGFIELD      N/A     64  21  19 S18       29.72F
$$



USA.gov is the U.S. government's official web portal to all federal, state and local government web resources and services.